timestamp,surface_pressure_avg,surface_temp_avg,battery_voltage,lat,long
2019-02-12 00:00:00+00:00,250.5998,-0.5,12.89,47.84626,-54.09684
2019-02-12 00:10:00+00:00,252.9514,-0.4,12.81,47.84626,-54.09684
2019-02-12 00:20:00+00:00,255.0147,-0.32,12.89,47.84626,-54.09684
2019-02-12 00:30:00+00:00,259.2347,-0.3,12.89,47.84626,-54.09684
2019-02-12 00:40:00+00:00,264.4114,-0.29,12.97,47.84626,-54.09684
2019-02-12 00:50:00+00:00,267.183,-0.28,12.97,47.84626,-54.09684
2019-02-12 01:00:00+00:00,271.3364,-0.3,12.89,47.84626,-54.09684
2019-02-12 01:10:00+00:00,275.7897,-0.3,12.81,47.84626,-54.09684
2019-02-12 01:20:00+00:00,281.5297,-0.43,12.89,47.84626,-54.09684
2019-02-12 01:30:00+00:00,284.8847,-0.3,12.89,47.84626,-54.09684
2019-02-12 01:40:00+00:00,290.8681,-0.3,12.89,47.84626,-54.09684
2019-02-12 01:50:00+00:00,296.9697,-0.3,12.97,47.84626,-54.09684
2019-02-12 02:00:00+00:00,304.3714,-0.29,12.81,47.84626,-54.09684
2019-02-12 02:10:00+00:00,309.798,-0.24,12.73,47.84626,-54.09684
2019-02-12 02:20:00+00:00,315.863,-0.2,12.81,47.84626,-54.09684
2019-02-12 02:30:00+00:00,319.0164,-0.2,12.89,47.84626,-54.09684
2019-02-12 02:40:00+00:00,322.2297,-0.2,12.89,47.84626,-54.09684
2019-02-12 02:50:00+00:00,327.2147,-0.2,12.89,47.84626,-54.09684
2019-02-12 03:00:00+00:00,330.4563,-0.2,12.81,47.84626,-54.09684
2019-02-12 03:10:00+00:00,329.203,-0.3,12.73,47.84626,-54.09684
2019-02-12 03:20:00+00:00,331.5913,-0.3,12.81,47.84626,-54.09684
2019-02-12 03:30:00+00:00,337.6396,-0.32,12.81,47.84626,-54.09684
2019-02-12 03:40:00+00:00,338.3013,-0.4,12.89,47.84626,-54.09684
2019-02-12 03:50:00+00:00,333.4646,-0.6,12.89,47.84626,-54.09684
2019-02-12 04:00:00+00:00,336.658,-0.6,12.81,47.84626,-54.09684
2019-02-12 04:10:00+00:00,338.4313,-0.53,12.73,47.84626,-54.09684
2019-02-12 04:20:00+00:00,337.2996,-0.6,12.81,47.84626,-54.09684
2019-02-12 04:30:00+00:00,335.9463,-0.6,12.81,47.84626,-54.09684
2019-02-12 04:40:00+00:00,334.9313,-0.6,12.81,47.84626,-54.09684
2019-02-12 04:50:00+00:00,336.4129,-0.6,12.81,47.84626,-54.09684
2019-02-12 05:00:00+00:00,337.8213,-0.24,12.73,47.84626,-54.09684
2019-02-12 05:10:00+00:00,332.9097,0.06,12.65,47.84626,-54.09684
2019-02-12 05:20:00+00:00,331.3163,-0.1,12.81,47.84626,-54.09684
2019-02-12 05:30:00+00:00,334.4713,0.0,12.81,47.84626,-54.09684
2019-02-12 05:40:00+00:00,332.9896,0.13,12.81,47.84626,-54.09684
2019-02-12 05:50:00+00:00,329.4197,0.2,12.81,47.84626,-54.09684
2019-02-12 06:00:00+00:00,330.413,0.2,12.73,47.84626,-54.09684
2019-02-12 06:10:00+00:00,333.4713,0.2,12.65,47.84626,-54.09684
2019-02-12 06:20:00+00:00,329.6297,0.1,12.73,47.84626,-54.09684
2019-02-12 06:30:00+00:00,322.2279,0.0,12.73,47.84626,-54.09684
2019-02-12 06:40:00+00:00,317.1146,-0.1,12.81,47.84626,-54.09684
2019-02-12 06:50:00+00:00,315.6497,-0.2,12.81,47.84626,-54.09684
2019-02-12 07:00:00+00:00,312.4613,-0.3,12.73,47.84626,-54.09684
2019-02-12 07:10:00+00:00,305.5597,-0.4,12.65,47.84626,-54.09684
2019-02-12 07:20:00+00:00,299.613,-0.6,12.73,47.84626,-54.09684
2019-02-12 07:30:00+00:00,295.183,-0.6,12.73,47.84626,-54.09684
2019-02-12 07:40:00+00:00,290.5813,-0.6,12.81,47.84626,-54.09684
2019-02-12 07:50:00+00:00,282.788,-0.32,12.81,47.84626,-54.09684
2019-02-12 08:00:00+00:00,273.498,-0.43,12.73,47.84626,-54.09684
2019-02-12 08:10:00+00:00,265.4581,-0.5,12.65,47.84626,-54.09684
2019-02-12 08:20:00+00:00,261.1464,-0.4,12.73,47.84626,-54.09684
2019-02-12 08:30:00+00:00,257.2348,-0.27,12.73,47.84626,-54.09684
2019-02-12 08:40:00+00:00,248.4097,-0.2,12.81,47.84626,-54.09684
2019-02-12 08:50:00+00:00,241.1214,-0.3,12.81,47.84626,-54.09684
2019-02-12 09:00:00+00:00,240.7798,-0.25,12.73,47.84626,-54.09684
2019-02-12 09:10:00+00:00,239.4064,-0.2,12.65,47.84626,-54.09684
2019-02-12 09:20:00+00:00,235.1998,-0.14,12.73,47.84626,-54.09684
2019-02-12 09:30:00+00:00,234.2198,-0.04,12.73,47.84626,-54.09684
2019-02-12 09:40:00+00:00,235.2281,-0.0,12.73,47.84626,-54.09684
2019-02-12 09:50:00+00:00,234.1365,0.0,12.81,47.84626,-54.09684
2019-02-12 10:00:00+00:00,232.4631,0.02,12.65,47.84626,-54.09684
2019-02-12 10:10:00+00:00,234.5164,0.1,12.65,47.84626,-54.09684
2019-02-12 10:20:00+00:00,238.6981,0.1,12.73,47.84626,-54.09684
2019-02-12 10:30:00+00:00,238.5748,0.1,12.73,47.84626,-54.09684
2019-02-12 10:40:00+00:00,238.6081,0.1,12.73,47.84626,-54.09684
2019-02-12 10:50:00+00:00,242.7548,0.1,12.81,47.84626,-54.09684
2019-02-12 11:00:00+00:00,245.0848,0.0,12.65,47.84626,-54.09684
2019-02-12 11:10:00+00:00,246.6164,-0.11,12.65,47.84626,-54.09684
2019-02-12 11:20:00+00:00,251.3897,-0.12,12.89,47.84626,-54.09684
2019-02-12 11:30:00+00:00,255.8448,-0.1,13.13,47.84626,-54.09684
2019-02-12 11:40:00+00:00,256.6981,0.0,13.29,47.84626,-54.09684
2019-02-12 11:50:00+00:00,258.2847,0.09,15.75,47.84626,-54.09684
2019-02-12 12:00:00+00:00,262.0214,0.1,16.39,47.84626,-54.09684
2019-02-12 12:10:00+00:00,264.2564,0.1,16.79,47.84626,-54.09684
2019-02-12 12:20:00+00:00,265.5747,0.0,16.95,47.84626,-54.09684
2019-02-12 12:30:00+00:00,269.9197,-0.0,16.87,47.84626,-54.09684
2019-02-12 12:40:00+00:00,275.9263,-0.08,15.83,47.84626,-54.09684
2019-02-12 12:50:00+00:00,278.0347,-0.2,15.75,47.84626,-54.09684
2019-02-12 13:00:00+00:00,278.4064,-0.2,15.51,47.84626,-54.09684
2019-02-12 13:10:00+00:00,282.538,-0.13,15.51,47.84626,-54.09684
2019-02-12 13:20:00+00:00,287.6297,-0.2,15.6,47.84626,-54.09684
2019-02-12 13:30:00+00:00,291.4114,-0.3,15.51,47.84626,-54.09684
2019-02-12 13:40:00+00:00,295.7681,-0.3,15.44,47.84626,-54.09684
2019-02-12 13:50:00+00:00,302.0747,-0.26,15.44,47.84626,-54.09684
2019-02-12 14:00:00+00:00,306.7697,-0.24,15.11,47.84626,-54.09684
2019-02-12 14:10:00+00:00,312.523,-0.22,15.2,47.84626,-54.09684
2019-02-12 14:20:00+00:00,317.3713,-0.22,15.27,47.84626,-54.09684
2019-02-12 14:30:00+00:00,321.623,-0.21,15.2,47.84626,-54.09684
2019-02-12 14:40:00+00:00,326.9597,-0.2,15.2,47.84626,-54.09684
2019-02-12 14:50:00+00:00,332.753,-0.2,15.2,47.84626,-54.09684
2019-02-12 15:00:00+00:00,335.1263,-0.2,15.04,47.84626,-54.09684
2019-02-12 15:10:00+00:00,336.9046,-0.2,15.04,47.84626,-54.09684
2019-02-12 15:20:00+00:00,340.723,-0.2,15.11,47.84626,-54.09684
2019-02-12 15:30:00+00:00,344.0013,-0.2,15.11,47.84626,-54.09684
2019-02-12 15:40:00+00:00,343.8613,-0.2,15.2,47.84626,-54.09684
2019-02-12 15:50:00+00:00,344.6329,-0.2,14.96,47.84626,-54.09684
2019-02-12 16:00:00+00:00,346.5463,-0.2,14.8,47.84626,-54.09684
2019-02-12 16:10:00+00:00,348.2664,-0.2,14.72,47.84626,-54.09684
2019-02-12 16:20:00+00:00,347.293,-0.2,14.72,47.84626,-54.09684
2019-02-12 16:30:00+00:00,347.5513,-0.2,14.72,47.84626,-54.09684
2019-02-12 16:40:00+00:00,348.3613,-0.2,14.72,47.84626,-54.09684
2019-02-12 16:50:00+00:00,346.6198,-0.2,14.88,47.84626,-54.09684
2019-02-12 17:00:00+00:00,345.218,-0.2,14.96,47.84626,-54.09684
2019-02-12 17:10:00+00:00,346.788,-0.17,14.88,47.84626,-54.09684
2019-02-12 17:20:00+00:00,346.1946,-0.19,14.88,47.84626,-54.09684
2019-02-12 17:30:00+00:00,344.6597,-0.2,14.8,47.84626,-54.09684
2019-02-12 17:40:00+00:00,343.0146,-0.2,14.72,47.84626,-54.09684
2019-02-12 17:50:00+00:00,341.4979,-0.22,14.64,47.84626,-54.09684
2019-02-12 18:00:00+00:00,335.1097,-0.2,14.56,47.84626,-54.09684
2019-02-12 18:10:00+00:00,332.2396,-0.2,14.8,47.84626,-54.09684
2019-02-12 18:20:00+00:00,330.7597,-0.1,14.72,47.84626,-54.09684
2019-02-12 18:30:00+00:00,325.9664,-0.1,14.64,47.84626,-54.09684
2019-02-12 18:40:00+00:00,319.158,-0.11,14.56,47.84626,-54.09684
2019-02-12 18:50:00+00:00,317.1313,-0.15,14.72,47.84626,-54.09684
2019-02-12 19:00:00+00:00,312.2697,-0.14,14.72,47.84626,-54.09684
2019-02-12 19:10:00+00:00,300.7446,-0.2,14.64,47.84626,-54.09684
2019-02-12 19:20:00+00:00,294.0364,-0.14,14.72,47.84626,-54.09684
2019-02-12 19:30:00+00:00,290.1214,-0.1,14.64,47.84626,-54.09684
2019-02-12 19:40:00+00:00,286.548,-0.04,14.64,47.84626,-54.09684
2019-02-12 19:50:00+00:00,280.6848,0.0,14.56,47.84626,-54.09684
2019-02-12 20:00:00+00:00,276.1263,-0.05,14.4,47.84626,-54.09684
2019-02-12 20:10:00+00:00,271.9864,-0.2,14.24,47.84626,-54.09684
2019-02-12 20:20:00+00:00,265.2981,-0.1,14.16,47.84626,-54.09684
2019-02-12 20:30:00+00:00,256.9597,-0.1,14.08,47.84626,-54.09684
2019-02-12 20:40:00+00:00,248.6281,-0.1,14.0,47.84626,-54.09684
2019-02-12 20:50:00+00:00,242.2448,-0.2,14.0,47.84626,-54.09684
2019-02-12 21:00:00+00:00,237.1914,-0.15,13.84,47.84626,-54.09684
2019-02-12 21:10:00+00:00,230.1031,-0.1,13.68,47.84626,-54.09684
2019-02-12 21:20:00+00:00,223.4897,0.0,13.6,47.84626,-54.09684
2019-02-12 21:30:00+00:00,225.1265,-0.1,13.6,47.84626,-54.09684
2019-02-12 21:40:00+00:00,231.7614,-0.02,13.53,47.84626,-54.09684
2019-02-12 21:50:00+00:00,234.7031,0.0,13.53,47.84626,-54.09684
2019-02-12 22:00:00+00:00,236.2315,0.0,13.37,47.84626,-54.09684
2019-02-12 22:10:00+00:00,239.3214,0.0,13.29,47.84626,-54.09684
2019-02-12 22:20:00+00:00,239.1747,0.0,13.29,47.84626,-54.09684
2019-02-12 22:30:00+00:00,235.5948,0.0,13.21,47.84626,-54.09684
2019-02-12 22:40:00+00:00,237.1131,0.0,13.21,47.84626,-54.09684
2019-02-12 22:50:00+00:00,241.9414,0.0,13.21,47.84626,-54.09684
2019-02-12 23:00:00+00:00,244.7514,-0.04,13.05,47.84626,-54.09684
2019-02-12 23:10:00+00:00,248.4764,-0.13,12.97,47.84626,-54.09684
2019-02-12 23:20:00+00:00,251.7614,-0.1,13.05,47.84626,-54.09684
2019-02-12 23:30:00+00:00,255.3631,-0.12,13.05,47.84626,-54.09684
2019-02-12 23:40:00+00:00,258.9898,-0.2,13.05,47.84626,-54.09684
2019-02-12 23:50:00+00:00,261.8997,-0.2,13.05,47.84626,-54.09684
